New Bern, NC

1:59 PM EDT on October 19, 2019 (GMT -0400)
Craven County Regional

Weather History for KEWN - August, 2019

Change the Weather History Date:

Saturday, August 24, 2019

  Actual Average Record
Temperature  
Mean Temperature 72 °F 78 °F  
Max Temperature 75 °F 87 °F 100 °F (2002)
Min Temperature 69 °F 70 °F 56 °F (1953)
Degree Days  
Heating Degree Days 0 0  
Month to date heating degree days 0 0  
Since 1 June heating degree days 0 1  
Since 1 July heating degree days 0 0  
Cooling Degree Days 7 13  
Month to date cooling degree days 385 348  
Year to date cooling degree days 1704 1438  
Since 1 June cooling degree days 1285 1195  
Growing Degree Days 22 (Base 50)    
Moisture  
Dew Point 71 °F    
Average Humidity 93    
Maximum Humidity 100    
Minimum Humidity 81    
Precipitation  
Precipitation 0.00 in 0.21 in 1.91 in (1988)
Month to date precipitation 5.50 5.25  
Year to date precipitation 28.44 35.40  
Snow  
Snow 0.00 in - - ()
Month to date snowfall 0.0  
Since 1 July snowfall 0.0  
Snow Depth 0.00 in    
Sea Level Pressure  
Sea Level Pressure 30.07 in    
Wind  
Wind Speed 6 mph ()    
Max Wind Speed 15 mph    
Max Gust Speed 19 mph    
Visibility 8.6 miles    
Events Rain    
T = Trace of Precipitation, MM = Missing Value Source: Averaged Metar Reports

Daily Weather History Graph

Daily Weather History Graph

Search for Another Location

Airport or City:

Astronomy

Aug. 24, 2019 Rise Set
Actual Time 6:34 AM EDT 7:45 PM EDT
Civil Twilight 6:08 AM EDT 8:12 PM EDT
Nautical Twilight 5:37 AM EDT 8:43 PM EDT
Astronomical Twilight 5:04 AM EDT 9:15 PM EDT
Moon 12:30 AM EDT (8/24) 2:53 PM EDT (8/24)
Length of Visible Light 14h 03m
Length of Day
13h 11m
Last Quarter, 39% of the Moon is Illuminated
Aug 24
Last Quarter
Aug 30
New
Sep 5
First Quarter
Sep 14
Full
Sep 21
Last Quarter

Hourly Weather History & Observations

Time (EDT) Temp. Dew Point Humidity Pressure Visibility Wind Dir Wind Speed Gust Speed Precip Events Conditions
12:54 AM 73.9 °F 72.0 °F 93% 30.03 in 10.0 mi Calm Calm - N/A   Clear
1:54 AM 73.9 °F 72.0 °F 93% 30.03 in 10.0 mi West 3.5 mph - N/A   Clear
2:54 AM 73.9 °F 72.0 °F 93% 30.02 in 10.0 mi NW 3.5 mph - N/A   Clear
3:54 AM 73.0 °F 72.0 °F 96% 30.02 in 10.0 mi Calm Calm - N/A   Scattered Clouds
4:32 AM 73.9 °F 72.0 °F 93% 30.02 in 10.0 mi Calm Calm - N/A   Overcast
4:51 AM 73.4 °F 71.6 °F 94% 30.02 in 10.0 mi NNW 5.8 mph - N/A   Overcast
4:54 AM 73.9 °F 72.0 °F 93% 30.03 in 10.0 mi North 6.9 mph - N/A   Overcast
5:54 AM 73.0 °F 73.0 °F 100% 30.03 in 10.0 mi NNE 6.9 mph - 0.00 in   Overcast
6:28 AM 73.0 °F 72.0 °F 96% 30.04 in 10.0 mi NE 11.5 mph - N/A   Overcast
6:41 AM 73.0 °F 72.0 °F 96% 30.04 in 10.0 mi NE 9.2 mph - N/A   Overcast
6:54 AM 73.0 °F 72.0 °F 96% 30.05 in 10.0 mi NE 12.7 mph - N/A   Overcast
7:15 AM 73.0 °F 72.0 °F 96% 30.06 in 10.0 mi NNE 9.2 mph - N/A   Overcast
7:21 AM 73.0 °F 72.0 °F 96% 30.06 in 10.0 mi NNE 9.2 mph - N/A   Overcast
7:54 AM 73.0 °F 72.0 °F 96% 30.08 in 10.0 mi NNE 8.1 mph - N/A   Overcast
8:01 AM 73.0 °F 72.0 °F 96% 30.08 in 10.0 mi NNE 8.1 mph - N/A   Overcast
8:54 AM 73.9 °F 71.1 °F 91% 30.09 in 10.0 mi NNE 11.5 mph - N/A   Overcast
9:54 AM 73.9 °F 71.1 °F 91% 30.09 in 10.0 mi NE 8.1 mph - N/A   Overcast
10:54 AM 73.9 °F 71.1 °F 91% 30.10 in 10.0 mi NE 10.4 mph - N/A   Overcast
11:54 AM 75.0 °F 71.1 °F 87% 30.10 in 10.0 mi NNE 11.5 mph - N/A   Overcast
12:54 PM 73.9 °F 71.1 °F 91% 30.10 in 10.0 mi NNE 8.1 mph - N/A   Overcast
1:51 PM 73.4 °F 71.6 °F 94% 30.10 in 2.5 mi North 5.8 mph - N/A Rain Heavy Rain
1:54 PM 73.0 °F 72.0 °F 96% 30.10 in 2.5 mi NNE 5.8 mph - N/A Rain Rain
2:01 PM 73.0 °F 72.0 °F 96% 30.10 in 3.0 mi NNE 5.8 mph - N/A Rain Heavy Rain
2:08 PM 73.0 °F 72.0 °F 96% 30.10 in 2.5 mi NE 5.8 mph - N/A Rain Heavy Rain
2:25 PM 73.9 °F 72.0 °F 93% 30.09 in 3.0 mi NNE 6.9 mph - N/A Rain Rain
2:38 PM 73.9 °F 72.0 °F 93% 30.09 in 8.0 mi NNE 5.8 mph - N/A Rain Light Rain
2:54 PM 73.0 °F 72.0 °F 96% 30.08 in 2.0 mi NNE 9.2 mph - N/A Rain Heavy Rain
2:57 PM 73.0 °F 72.0 °F 96% 30.08 in 1.8 mi NNE 8.1 mph - N/A Rain Heavy Rain
3:03 PM 73.9 °F 72.0 °F 93% 30.07 in 3.0 mi NNE 9.2 mph - N/A Rain Rain
3:22 PM 75.0 °F 73.9 °F 96% 30.07 in 8.0 mi NNE 11.5 mph - N/A Rain Light Rain
3:54 PM 73.9 °F 72.0 °F 93% 30.07 in 10.0 mi NNE 11.5 mph - N/A   Overcast
4:54 PM 73.0 °F 71.1 °F 93% 30.06 in 10.0 mi NNE 11.5 mph - N/A   Overcast
5:41 PM 73.0 °F 70.0 °F 90% 30.07 in 10.0 mi NNE 11.5 mph - N/A   Overcast
5:54 PM 73.0 °F 70.0 °F 90% 30.07 in 10.0 mi NNE 12.7 mph - N/A   Overcast
6:05 PM 73.0 °F 70.0 °F 90% 30.07 in 10.0 mi North 10.4 mph - N/A   Overcast
6:54 PM 73.0 °F 70.0 °F 90% 30.07 in 10.0 mi NNE 8.1 mph - N/A   Overcast
7:54 PM 72.0 °F 70.0 °F 93% 30.08 in 10.0 mi NNE 12.7 mph - N/A   Overcast
8:14 PM 71.1 °F 69.1 °F 93% 30.09 in 10.0 mi NNE 10.4 mph - N/A   Overcast
8:47 PM 71.1 °F 69.1 °F 93% 30.09 in 10.0 mi NNE 9.2 mph - N/A   Overcast
8:54 PM 71.1 °F 69.1 °F 93% 30.10 in 10.0 mi NNE 8.1 mph - N/A   Overcast
9:50 PM 69.8 °F 64.4 °F 83% 30.10 in 10.0 mi NNE 12.7 mph - N/A   Overcast
9:54 PM 70.0 °F 64.0 °F 81% 30.11 in 10.0 mi NNE 13.8 mph - N/A   Overcast
10:54 PM 70.0 °F 64.0 °F 81% 30.11 in 10.0 mi NNE 9.2 mph - N/A   Overcast
11:54 PM 69.1 °F 64.0 °F 84% 30.09 in 10.0 mi NNE 12.7 mph - N/A   Mostly Cloudy